Location: Alpha Ridge Park
(39.3209°N, 76.9128°W)
Time: 19:29:38
(UTC-04:00)

S-56A Canister/Altair - Pass Details

Date: 20 May 2019
Orbit: 633 x 2499 km, 38.9° (Epoch: 16 June)

Event Time Altitude Azimuth Distance (km) Brightness Sun altitude
Rises 12:03:52 0° 274° (W) 5,862 11.9 66.7°
Reaches altitude 10° 12:13:00 10° 242° (WSW) 5,117 11.8 67.8°
Maximum altitude 12:15:29 11° 232° (SW) 5,095 11.9 68.0°
Drops below altitude 10° 12:18:00 10° 222° (SW) 5,156 12.0 68.3°
Sets 12:27:36 0° 190° (S) 6,031 12.3 69.2°
